World > North America > United States > Wyoming > Bear River

Bear River, WY Hourly Weather Conditions

Feedback E-mail the Weather

Quick WX

Bear River, WY Weather Maps

°F °C°F °C
Bear River Weather Map
UTC Time: 2/1/2023, 19:37
Your Time:

Bear River, WY Regional Weather

Expires:202302012000;;630166
ASUS45 KCYS 011910
RWRWY 

WYOMING REGIONAL WEATHER ROUNDUP
NATIONAL WEATHER SERVICE CHEYENNE WY
1200 PM MST WED FEB 01 2023

NOTE:  "FAIR" INDICATES FEW OR NO CLOUDS BELOW 12,000 FEET
WITH NO SIGNIFICANT WEATHER AND/OR OBSTRUCTIONS TO VISIBILITY.


WYZ021-027>030-104>119-012000-
SOUTHERN WYOMING
  
CITY           SKY/WX    TMP DP  RH WIND       PRES   REMARKS
EVANSTON       FAIR      16   5  62 SW12      30.24F WCI   3          
ROCK SPRINGS   FAIR      22  10  60 W18       30.21F WCI   7          
DIXON          FAIR      10  -2  59 CALM      30.30F                  
RAWLINS        FLURRIES  20   9  62 W26G41    30.12F WCI   2          
SARATOGA       MOCLDY    27  10  50 SE7       30.18F WCI  19          
LARAMIE        FAIR      25  13  60 SW21      30.07F WCI  11          
CHEYENNE       FAIR      32  17  54 W28G40    30.04F WCI  18          
TORRINGTON     FAIR      33  17  51 SW6       30.08F WCI  28          

$$
  

SKY/WX - Weather  TMP - Temperature  DP - Dew Point  RH - Humidity
WIND - Wind Direction/Speed PRES - Barometric Pressure VSB - Visibility
WCI - Wind Chill Index E13G22 Wind - East Wind 13 mph/Gusts of 22 mph

Trending Headlines

Trending Entertainment Headlines

Bear River Radar Loop

Use the map search tool if you want to place a location marker on the radar map...

Bear River Quick Facts

National Two Day Weather Forecast


E-mail the Bear River Weather Forecast

Voice your opinion or tell us about page issues...